TimeCST,TemperatureF,Dew PointF,Humidity,Sea Level PressureIn,VisibilityMPH,Wind Direction,Wind SpeedMPH,Gust SpeedMPH,PrecipitationIn,Events,Conditions,WindDirDegrees,DateUTC
12:56 AM,30.0,28.0,92,30.13,10.0,Calm,Calm,-,N/A,,Clear,0,2013-02-06 06:56:00
1:56 AM,27.1,25.2,92,30.14,10.0,Calm,Calm,-,N/A,,Clear,0,2013-02-06 07:56:00
2:56 AM,24.1,23.0,96,30.15,10.0,Calm,Calm,-,N/A,,Clear,0,2013-02-06 08:56:00
4:56 AM,24.1,23.0,96,30.19,9.0,Calm,Calm,-,N/A,,Clear,0,2013-02-06 10:56:00
5:56 AM,22.1,21.0,96,30.22,9.0,Calm,Calm,-,N/A,,Clear,0,2013-02-06 11:56:00
7:56 AM,30.0,29.1,96,30.25,6.0,Calm,Calm,-,N/A,,Clear,0,2013-02-06 13:56:00
8:56 AM,37.9,34.0,86,30.26,9.0,Calm,Calm,-,N/A,,Clear,0,2013-02-06 14:56:00
9:56 AM,45.0,34.0,65,30.27,9.0,Calm,Calm,-,N/A,,Clear,0,2013-02-06 15:56:00
10:56 AM,46.9,34.0,61,30.27,10.0,North,6.9,-,N/A,,Clear,360,2013-02-06 16:56:00
11:56 AM,50.9,31.1,47,30.25,10.0,East,4.6,-,N/A,,Clear,90,2013-02-06 17:56:00
12:56 PM,54.0,30.0,40,30.23,10.0,SSE,4.6,-,N/A,,Clear,150,2013-02-06 18:56:00
1:56 PM,54.9,27.1,34,30.23,10.0,SSE,5.8,-,N/A,,Clear,160,2013-02-06 19:56:00
2:56 PM,54.9,26.1,33,30.22,10.0,Variable,3.5,-,N/A,,Clear,0,2013-02-06 20:56:00
3:56 PM,54.0,28.0,37,30.21,10.0,South,6.9,-,N/A,,Clear,180,2013-02-06 21:56:00
4:56 PM,45.9,28.0,50,30.22,10.0,SW,3.5,-,N/A,,Clear,220,2013-02-06 22:56:00
5:56 PM,38.8,28.0,65,30.23,10.0,Calm,Calm,-,N/A,,Clear,0,2013-02-06 23:56:00
6:56 PM,32.9,28.0,82,30.24,10.0,Calm,Calm,-,N/A,,Clear,0,2013-02-07 00:56:00
7:56 PM,34.0,29.1,82,30.23,10.0,Calm,Calm,-,N/A,,Clear,0,2013-02-07 01:56:00
8:56 PM,32.9,30.0,89,30.24,10.0,Calm,Calm,-,N/A,,Clear,0,2013-02-07 02:56:00
9:56 PM,32.9,30.0,89,30.22,10.0,Calm,Calm,-,N/A,,Clear,0,2013-02-07 03:56:00
10:56 PM,36.0,31.1,82,30.20,10.0,Calm,Calm,-,N/A,,Clear,0,2013-02-07 04:56:00
11:56 PM,34.9,31.1,86,30.18,10.0,Calm,Calm,-,N/A,,Clear,0,2013-02-07 05:56:00